Location: Laura�t
(43.9341°N, 0.2497°E)
Time: 23:33:57
(UTC+00:00)

Resurs 01 Rocket - Pass Details

Date: 03 March 2021
Orbit: 635 x 643 km, 98.0° (Epoch: 17 April)

Event Time Altitude Azimuth Distance (km) Brightness Sun altitude
Exits shadow 20:50:14 22° 339° (NNW) 1,409 3.7 -32.5°
Drops below altitude 10° 20:51:49 10° 343° (NNW) 2,032 4.6 -32.7°
Sets 20:54:02 0° 345° (NNW) 2,946 5.5 -33.1°
